Location: Atherton
(17.2661°S, 145.4859°E)
Time: 22:54:57
(UTC+10:00)

Vanguard 1 - Pass Details

Date: 24 June 2025
Orbit: 649 x 3822 km, 34.2° (Epoch: 17 July)

Event Time Altitude Azimuth Distance (km) Brightness Sun altitude
Rises 18:09:48 0° 304° (WNW) 7,894 16.9 -4.4°
Reaches altitude 10° 18:15:30 10° 303° (WNW) 6,700 16.0 -5.7°
Maximum altitude 18:36:22 87° 213° (SSW) 2,571 12.1 -10.3°
Enters shadow 18:46:58 14° 123° (ESE) 3,763 12.4 -12.6°
Drops below altitude 10° 18:47:51 10° 122° (ESE) 3,987 - -12.8°
Sets 18:50:20 0° 122° (ESE) 4,671 - -13.4°
